| time (UTC) | temp F | wind direction | speed knots | gust knots | rain 1hr in | rain 24hr in | rain mn in | humidity % | barometer mb |
| 20260504044502 | 50 | 32 | 0.9 | 4.3 | 0.00 | 0.00 | 0.00 | 70 | 995.2 |
| 20260504043022 | 50 | 348 | 1.7 | 10.4 | 0.00 | 0.00 | 0.00 | 69 | 995.1 |
| 20260504041534 | 51 | 41 | 1.7 | 8.7 | 0.00 | 0.00 | 0.00 | 68 | 994.9 |
| 20260504040046 | 52 | 357 | 2.6 | 9.6 | 0.00 | 0.00 | 0.00 | 68 | 994.7 |
| 20260504034614 | 53 | 51 | 3.5 | 14.8 | 0.00 | 0.00 | 0.00 | 65 | 994.4 |
| 20260504033016 | 59 | 344 | 3.5 | 15.6 | 0.00 | 0.00 | 0.00 | 52 | 993.9 |
| 20260504031529 | 66 | 328 | 8.7 | 13.0 | 0.00 | 0.00 | 0.00 | 36 | 992.4 |
| 20260504030043 | 67 | 310 | 11.3 | 18.2 | 0.00 | 0.00 | 0.00 | 34 | 992.2 |
| 20260504024551 | 66 | 280 | 8.7 | 13.9 | 0.00 | 0.00 | 0.00 | 33 | 992.0 |
| 20260504023002 | 66 | 279 | 6.1 | 12.2 | 0.00 | 0.00 | 0.00 | 33 | 991.8 |
| 20260504021527 | 67 | 260 | 7.0 | 10.4 | 0.00 | 0.00 | 0.00 | 32 | 991.6 |
| 20260504020036 | 68 | 273 | 4.3 | 9.6 | 0.00 | 0.00 | 0.00 | 32 | 991.7 |
| 20260504014600 | 69 | 272 | 7.0 | 12.2 | 0.00 | 0.00 | 0.00 | 31 | 992.0 |
| 20260504013052 | 69 | 265 | 6.1 | 13.0 | 0.00 | 0.00 | 0.00 | 30 | 992.3 |
| 20260504011605 | 70 | 278 | 7.8 | 13.9 | 0.00 | 0.00 | 0.00 | 29 | 992.8 |
| 20260504010021 | 72 | 305 | 10.4 | 16.5 | 0.00 | 0.00 | 0.00 | 27 | 993.1 |
| 20260504004538 | 72 | 291 | 12.2 | 20.9 | 0.00 | 0.00 | 0.00 | 25 | 993.3 |
| 20260504003058 | 73 | 304 | 12.2 | 22.6 | 0.00 | 0.00 | 0.00 | 25 | 993.7 |
| 20260504001508 | 73 | 293 | 14.8 | 26.1 | 0.00 | 0.00 | 0.00 | 25 | 993.8 |
| 20260504000028 | 74 | 275 | 15.6 | 22.6 | 0.00 | 0.00 | 0.00 | 27 | 994.1 |
| 20260503234546 | 74 | 291 | 13.9 | 26.1 | 0.00 | 0.00 | 0.00 | 26 | 994.3 |
| 20260503233049 | 74 | 303 | 13.9 | 22.6 | 0.00 | 0.00 | 0.00 | 27 | 994.7 |
| 20260503231604 | 74 | 305 | 13.0 | 25.2 | 0.00 | 0.00 | 0.00 | 27 | 995.0 |
| 20260503230020 | 74 | 275 | 13.0 | 25.2 | 0.00 | 0.00 | 0.00 | 28 | 995.2 |
| 20260503224517 | 74 | 296 | 13.9 | 25.2 | 0.00 | 0.00 | 0.00 | 28 | 995.5 |
| 20260503223019 | 74 | 275 | 10.4 | 22.6 | 0.00 | 0.00 | 0.00 | 30 | 995.7 |
| 20260503221531 | 73 | 273 | 11.3 | 27.8 | 0.00 | 0.00 | 0.00 | 29 | 995.8 |
| 20260503220049 | 73 | 281 | 12.2 | 27.8 | 0.00 | 0.00 | 0.00 | 30 | 996.4 |
| 20260503214544 | 73 | 300 | 11.3 | 22.6 | 0.00 | 0.00 | 0.00 | 30 | 996.7 |
| 20260503213052 | 73 | 303 | 15.6 | 23.5 | 0.00 | 0.00 | 0.00 | 29 | 997.1 |
| 20260503211548 | 73 | 291 | 12.2 | 27.8 | 0.00 | 0.00 | 0.00 | 30 | 997.5 |
| 20260503210105 | 72 | 303 | 13.9 | 23.5 | 0.00 | 0.00 | 0.00 | 29 | 998.0 |
| 20260503204510 | 73 | 287 | 13.0 | 28.7 | 0.00 | 0.00 | 0.00 | 29 | 998.2 |
| 20260503203025 | 73 | 300 | 13.0 | 26.1 | 0.00 | 0.00 | 0.00 | 30 | 998.5 |
| 20260503201524 | 72 | 291 | 13.9 | 24.3 | 0.00 | 0.00 | 0.00 | 29 | 998.9 |
| 20260503200028 | 73 | 283 | 10.4 | 21.7 | 0.00 | 0.00 | 0.00 | 31 | 999.3 |
| 20260503194531 | 71 | 279 | 8.7 | 23.5 | 0.00 | 0.00 | 0.00 | 32 | 999.6 |
| 20260503193036 | 70 | 275 | 10.4 | 22.6 | 0.00 | 0.00 | 0.00 | 34 | 1000.2 |
| 20260503191548 | 71 | 273 | 8.7 | 22.6 | 0.00 | 0.00 | 0.00 | 33 | 1000.4 |
| 20260503190007 | 70 | 291 | 8.7 | 22.6 | 0.00 | 0.00 | 0.00 | 32 | 1000.8 |
| 20260503184509 | 70 | 279 | 7.8 | 22.6 | 0.00 | 0.00 | 0.00 | 33 | 1001.1 |
| 20260503183012 | 69 | 338 | 10.4 | 23.5 | 0.00 | 0.00 | 0.00 | 32 | 1001.7 |
| 20260503181524 | 69 | 282 | 10.4 | 25.2 | 0.00 | 0.00 | 0.00 | 32 | 1002.0 |
| 20260503180027 | 69 | 287 | 10.4 | 18.2 | 0.00 | 0.00 | 0.00 | 32 | 1002.3 |
| 20260503174539 | 68 | 301 | 8.7 | 16.5 | 0.00 | 0.00 | 0.00 | 33 | 1002.6 |
| 20260503173050 | 68 | 287 | 11.3 | 23.5 | 0.00 | 0.00 | 0.00 | 33 | 1003.0 |
| 20260503171556 | 67 | 327 | 8.7 | 20.9 | 0.00 | 0.00 | 0.00 | 34 | 1003.4 |
| 20260503081513 | 36 | 336 | 2.6 | 4.3 | 0.00 | 0.00 | 0.00 | 71 | 1007.8 |
| 20260503071536 | 37 | 352 | 1.7 | 3.5 | 0.00 | 0.00 | 0.00 | 70 | 1007.7 |
| 20260503054604 | 40 | 14 | 0.0 | 1.7 | 0.00 | 0.00 | 0.00 | 67 | 1008.1 |
| 20260503053013 | 41 | 27 | 0.0 | 1.7 | 0.00 | 0.00 | 0.00 | 65 | 1008.0 |